This demonstration page uses our WeatherBlox Daily Observations layout. Learn more.

Left ArrowRight Arrow

Hourly Observations for May 23, 2022

Temp ( °F °C ) Dew Point ( °F °C ) Humidity (%) Winds ( mph kmh ) Pressure ( in mb ) Visibility ( mi km ) Precip ( " mm )
12:53 am 00:53 Clear 73 22.8 36 2.2 26 26 NW 6 9 29.97 1015 10 16 0.00 0.00
1:53 am 01:53 Clear 72 22.2 35 1.7 26 26 NW 6 9 29.96 1015 10 16 0.00 0.00
2:53 am 02:53 Clear 70 21.1 35 1.7 28 28 NNW 7 11 29.98 1015 10 16 0.00 0.00
3:53 am 03:53 Clear 69 20.6 33 0.6 26 26 NW 7 11 29.97 1015 10 16 0.00 0.00
4:53 am 04:53 Clear 68 20 32 0 26 26 NNW 7 11 29.97 1015 10 16 0.00 0.00
5:53 am 05:53 Sunny 67 19.4 33 0.6 28 28 NW 8 13 29.98 1015 10 16 0.00 0.00
6:53 am 06:53 Sunny 68 20 35 1.7 30 30 WNW 8 13 29.99 1016 10 16 0.00 0.00
7:53 am 07:53 Sunny 73 22.8 35 1.7 25 25 NW 9 15 29.99 1016 10 16 0.00 0.00
8:53 am 08:53 Sunny 76 24.4 35 1.7 23 23 NNW 13 20 29.99 1016 10 16 0.00 0.00
9:53 am 09:53 Sunny 79 26.1 34 1.1 20 20 NNW 13 20 29.97 1015 10 16 0.00 0.00
10:53 am 10:53 Sunny 81 27.2 34 1.1 18 18 NNW 13 20 29.96 1015 10 16 0.00 0.00
11:53 am 11:53 Sunny 85 29.4 36 2.2 17 17 NNW 15 24 29.94 1014 10 16 0.00 0.00
12:53 pm 12:53 Sunny 87 30.6 36 2.2 16 16 N 16 26 29.92 1013 10 16 0.00 0.00
1:53 pm 13:53 Sunny 89 31.7 34 1.1 14 14 N 15 24 29.89 1012 10 16 0.00 0.00
2:53 pm 14:53 Sunny 90 32.2 33 0.6 13 13 NNW 16 26 29.87 1012 10 16 0.00 0.00
3:53 pm 15:53 Sunny 92 33.3 33 0.6 12 12 N 14 22 29.84 1011 10 16 0.00 0.00
4:53 pm 16:53 Sunny 92 33.3 33 0.6 12 12 VRB 5 7 29.82 1010 10 16 0.00 0.00
5:53 pm 17:53 Sunny 93 33.9 32 0 11 11 NNW 10 17 29.80 1009 10 16 0.00 0.00
6:53 pm 18:53 Sunny 93 33.9 30 -1.1 10 10 N 9 15 29.79 1009 10 16 0.00 0.00
7:53 pm 19:53 Sunny 90 32.2 27 -2.8 10 10 N 12 19 29.79 1009 10 16 0.00 0.00
8:53 pm 20:53 Clear 85 29.4 30 -1.1 14 14 N 9 15 29.82 1010 10 16 0.00 0.00
9:53 pm 21:53 Clear 80 26.7 33 0.6 18 18 N 5 7 29.85 1011 10 16 0.00 0.00
10:53 pm 22:53 Clear 79 26.1 35 1.7 20 20 N 8 13 29.87 1011 10 16 0.00 0.00
11:53 pm 23:53 Clear 78 25.6 34 1.1 20 20 N 8 13 29.86 1011 10 16 0.00 0.00

Powered by AerisWeather